Weather History for Toledo, OH

Change the Weather History Date:

Thursday, February 14, 2013

  Actual Average Record
Temperature  
Mean Temperature 36 °F 28 °F  
Max Temperature 42 °F 36 °F 60 °F (1918)
Min Temperature 29 °F 20 °F -14 °F (1905)
Degree Days  
Heating Degree Days 29 37  
Month to date heating degree days 551 536  
Since 1 July heating degree days 3943 4085  
Cooling Degree Days 0 0  
Month to date cooling degree days 0 0  
Year to date cooling degree days 0 0  
Moisture  
Dew Point 29 °F    
Average Humidity 73    
Maximum Humidity 89    
Minimum Humidity 56    
Precipitation  
Precipitation T in 0.08 in 0.42 in (1959)
Month to date precipitation 0.55 0.99  
Year to date precipitation 4.17 3.04  
Snow  
Snow 0.00 in 0.30 in - ()
Month to date snowfall 7.7 5.0  
Since 1 July snowfall 17.8 26.1  
Snow Depth 0.00 in    
Sea Level Pressure  
Sea Level Pressure 29.79 in    
Wind  
Wind Speed 13 mph (SW)    
Max Wind Speed 31 mph    
Max Gust Speed 38 mph    
Visibility 8 miles    
Events Rain    
T = Trace of Precipitation, MM = Missing Value Source: NWS Daily Summary

Daily Weather History Graph

Daily Weather History Graph

Search for Another Location

Airport:

Trip Planner

Search our weather history database for the weather conditions in past years. The results will help you decide how hot, cold, wet, or windy it might be!

Date:

Astronomy

Feb. 14, 2013 Rise Set
Actual Time 7:31 AM EST 6:07 PM EST
Civil Twilight 7:02 AM EST 6:36 PM EST
Nautical Twilight 6:30 AM EST 7:08 PM EST
Astronomical Twilight 5:58 AM EST 7:41 PM EST
Moon 9:28 AM EST (2/14) 11:14 PM EST (2/14)
Length of Visible Light 11h 33m
Length of Day
10h 36m
Waxing Crescent, 21% of the Moon is Illuminated
Feb 14
Waxing Crescent
Feb 17
First Quarter
Feb 25
Full
Mar 4
Last Quarter
Mar 11
New

Hourly Weather History & Observations

Time (EST) Temp. Windchill Dew Point Humidity Pressure Visibility Wind Dir Wind Speed Gust Speed Precip Events Conditions
12:52 AM 30.9 °F 23.5 °F 26.1 °F 82% 29.81 in 8.0 mi SSW 8.1 mph - N/A   Mostly Cloudy
1:52 AM 30.9 °F 25.2 °F 25.0 °F 79% 29.81 in 9.0 mi SSW 5.8 mph - N/A   Clear
2:52 AM 30.2 °F 26.7 °F 24.8 °F 80% 29.79 in 8.0 mi SSW 3.5 mph - N/A   Clear
3:52 AM 32.0 °F 25.6 °F 26.1 °F 79% 29.80 in 8.0 mi SSW 6.9 mph - N/A   Clear
4:52 AM 32.0 °F 25.6 °F 27.0 °F 82% 29.81 in 7.0 mi SSW 6.9 mph - N/A   Mostly Cloudy
5:52 AM 32.0 °F 24.8 °F 27.0 °F 82% 29.80 in 7.0 mi SW 8.1 mph - N/A   Overcast
6:52 AM 32.0 °F 24.8 °F 28.0 °F 85% 29.80 in 6.0 mi SSW 8.1 mph - N/A   Overcast
7:52 AM 32.0 °F 24.8 °F 28.9 °F 88% 29.81 in 4.0 mi SSW 8.1 mph - N/A   Mostly Cloudy
8:34 AM 33.8 °F 27.0 °F 28.4 °F 81% 29.80 in 4.0 mi SSW 8.1 mph - N/A   Overcast
8:48 AM 33.8 °F 25.8 °F 28.4 °F 81% 29.80 in 4.0 mi SSW 10.4 mph - N/A   Overcast
8:52 AM 33.1 °F 25.5 °F 30.0 °F 89% 29.82 in 4.0 mi SSW 9.2 mph - N/A   Overcast
9:52 AM 35.1 °F 27.4 °F 30.9 °F 85% 29.81 in 4.0 mi SSW 10.4 mph 17.3 mph N/A   Overcast
10:24 AM 35.6 °F 29.9 °F 30.2 °F 81% 29.77 in 4.0 mi SSW 6.9 mph 17.3 mph N/A   Haze
10:52 AM 35.6 °F 26.6 °F 30.2 °F 81% 29.76 in 4.0 mi South 13.8 mph 20.7 mph N/A   Haze
11:52 AM 39.0 °F 31.0 °F 32.0 °F 76% 29.77 in 5.0 mi SSW 13.8 mph 19.6 mph N/A   Haze
12:20 PM 39.2 °F 31.6 °F 32.0 °F 75% 29.75 in 7.0 mi South 12.7 mph 21.9 mph N/A   Mostly Cloudy
12:52 PM 39.9 °F 33.4 °F 32.0 °F 73% 29.76 in 8.0 mi SSW 10.4 mph 18.4 mph N/A   Overcast
1:52 PM 39.9 °F 32.5 °F 32.0 °F 73% 29.74 in 8.0 mi SSW 12.7 mph 25.3 mph 0.00 in Rain Light Rain
2:52 PM 41.0 °F 33.1 °F 33.1 °F 73% 29.73 in 8.0 mi SSW 15.0 mph 23.0 mph 0.00 in Rain Light Rain
3:52 PM 41.0 °F 34.3 °F 33.1 °F 73% 29.73 in 9.0 mi SSW 11.5 mph 16.1 mph 0.00 in   Overcast
4:09 PM 42.8 °F 38.0 °F 33.8 °F 70% 29.71 in 8.0 mi SW 8.1 mph 19.6 mph N/A   Overcast
4:18 PM 42.8 °F 35.8 °F 33.8 °F 70% 29.72 in 9.0 mi SW 13.8 mph 20.7 mph N/A   Overcast
4:27 PM 42.8 °F 35.1 °F 33.8 °F 70% 29.71 in 10.0 mi SW 16.1 mph 24.2 mph N/A   Overcast
4:52 PM 42.1 °F 33.1 °F 30.9 °F 65% 29.75 in 10.0 mi WSW 20.7 mph 33.4 mph N/A   Overcast
5:52 PM 39.0 °F 28.5 °F 28.0 °F 65% 29.80 in 10.0 mi WSW 23.0 mph 32.2 mph N/A   Overcast
6:52 PM 37.9 °F 27.9 °F 27.0 °F 65% 29.83 in 10.0 mi WSW 19.6 mph 27.6 mph N/A   Overcast
7:52 PM 37.9 °F 28.2 °F 27.0 °F 65% 29.84 in 10.0 mi WSW 18.4 mph 24.2 mph N/A   Overcast
8:52 PM 37.0 °F 26.7 °F 25.0 °F 62% 29.88 in 10.0 mi West 19.6 mph 26.5 mph N/A   Overcast
9:52 PM 36.0 °F 25.6 °F 21.9 °F 57% 29.88 in 10.0 mi West 18.4 mph 27.6 mph N/A   Overcast
10:52 PM 35.6 °F 24.8 °F 23.0 °F 60% 29.88 in 10.0 mi WSW 19.6 mph 25.3 mph N/A   Mostly Cloudy
11:52 PM 33.1 °F 22.6 °F 23.0 °F 66% 29.91 in 10.0 mi West 16.1 mph - N/A   Clear